TimeEDT,TemperatureF,Dew PointF,Humidity,Sea Level PressureIn,VisibilityMPH,Wind Direction,Wind SpeedMPH,Gust SpeedMPH,PrecipitationIn,Events,Conditions,WindDirDegrees,DateUTC
12:53 AM,69.1,66.9,93,30.03,10.0,WSW,4.6,-,N/A,,Clear,250,2013-07-30 04:53:00
1:53 AM,66.9,64.9,93,30.03,10.0,Calm,Calm,-,N/A,,Clear,0,2013-07-30 05:53:00
2:35 AM,66.2,66.2,100,30.03,2.0,Calm,Calm,-,N/A,,Scattered Clouds,0,2013-07-30 06:35:00
2:46 AM,66.2,64.4,94,30.03,3.0,Calm,Calm,-,N/A,,Partly Cloudy,0,2013-07-30 06:46:00
2:53 AM,66.0,64.9,96,30.04,2.0,Calm,Calm,-,N/A,,Partly Cloudy,0,2013-07-30 06:53:00
3:04 AM,66.2,64.4,94,30.04,10.0,Calm,Calm,-,N/A,,Clear,0,2013-07-30 07:04:00
3:53 AM,66.9,62.1,84,30.04,10.0,Calm,Calm,-,N/A,,Clear,0,2013-07-30 07:53:00
4:53 AM,64.0,59.0,84,30.03,10.0,WNW,4.6,-,N/A,,Clear,300,2013-07-30 08:53:00
5:53 AM,63.0,57.9,84,30.05,10.0,Calm,Calm,-,N/A,,Clear,0,2013-07-30 09:53:00
6:53 AM,64.0,57.0,78,30.06,10.0,Calm,Calm,-,N/A,,Clear,0,2013-07-30 10:53:00
7:53 AM,69.1,57.0,65,30.07,10.0,WNW,3.5,-,N/A,,Clear,300,2013-07-30 11:53:00
8:53 AM,73.0,57.9,59,30.08,10.0,Variable,5.8,-,N/A,,Clear,0,2013-07-30 12:53:00
9:53 AM,75.9,57.9,54,30.08,10.0,WNW,6.9,-,N/A,,Clear,290,2013-07-30 13:53:00
10:53 AM,78.1,59.0,52,30.09,10.0,West,8.1,-,N/A,,Clear,280,2013-07-30 14:53:00
11:53 AM,79.0,57.9,48,30.08,10.0,West,5.8,-,N/A,,Clear,270,2013-07-30 15:53:00
12:53 PM,80.1,55.9,43,30.07,10.0,WNW,9.2,-,N/A,,Clear,300,2013-07-30 16:53:00
1:53 PM,81.0,57.0,44,30.05,10.0,Variable,6.9,-,N/A,,Partly Cloudy,0,2013-07-30 17:53:00
2:53 PM,82.0,57.0,42,30.05,10.0,WNW,6.9,-,N/A,,Partly Cloudy,300,2013-07-30 18:53:00
3:53 PM,82.0,57.0,42,30.04,10.0,Variable,6.9,16.1,N/A,,Partly Cloudy,0,2013-07-30 19:53:00
4:53 PM,82.0,57.0,42,30.03,10.0,West,11.5,-,N/A,,Clear,280,2013-07-30 20:53:00
5:53 PM,80.1,55.9,43,30.03,10.0,WNW,5.8,-,N/A,,Scattered Clouds,300,2013-07-30 21:53:00
6:53 PM,78.1,57.0,48,30.05,10.0,West,3.5,-,N/A,,Scattered Clouds,270,2013-07-30 22:53:00
7:53 PM,73.0,61.0,66,30.07,10.0,West,3.5,-,N/A,,Scattered Clouds,280,2013-07-30 23:53:00
8:53 PM,69.1,60.1,73,30.09,10.0,West,3.5,-,N/A,,Clear,270,2013-07-31 00:53:00
9:53 PM,66.0,60.1,81,30.09,10.0,Calm,Calm,-,N/A,,Clear,0,2013-07-31 01:53:00
10:53 PM,64.0,60.1,87,30.09,10.0,Calm,Calm,-,N/A,,Clear,0,2013-07-31 02:53:00
11:53 PM,63.0,60.1,90,30.09,10.0,Calm,Calm,-,N/A,,Clear,0,2013-07-31 03:53:00